Regional Weather Roundup
Issued by NWS

Home | Current Version | Previous Version | Text Only | Print | Product List | Glossary On
Versions: 1 2 3 4 5 6 7 8 9 10 11 12 13 14 15 16 17 18 19 20 21 22 23 24 25 26 27 28 29 30 31 32 33 34 35 36 37 38 39 40 41 42 43 44 45 46 47 48 49 50
000
ASUS44 KFWD 262203
RWRTX
NORTH TEXAS HOURLY WEATHER ROUNDUP
NATIONAL WEATHER SERVICE FORT WORTH TX
400 PM CST THU FEB 26 2015

NOTE: "FAIR" INDICATES FEW OR NO CLOUDS BELOW 12,000 FEET WITH NO
SIGNIFICANT WEATHER AND/OR OBSTRUCTIONS TO VISIBILITY.

TXZ118-119-262300-
DALLAS/FORT WORTH METROPLEX

CITY           SKY/WX    TMP DP  RH WIND       PRES   REMARKS
DFW AIRPORT    CLOUDY    35  17  47 N21       30.30R WCI  24
DALLAS LOVE    CLOUDY    36  18  48 N17       30.30R WCI  26
FTW MEACHAM    CLOUDY    35  19  52 N17       30.30R WCI  25
DAL-EXECUTIVE  CLOUDY    36  19  50 NW16      30.28R WCI  26
FTW-ALLIANCE   CLOUDY    34  17  50 N14       30.30S WCI  25
FTW-SPINKS     CLOUDY    36  21  55 N15G26    30.30F WCI  26
ARLINGTON      CLOUDY    38  17  42 N18       30.29S WCI  28
MESQUITE       CLOUDY    36  21  55 N16G25    30.29R WCI  26
LANCASTER      CLOUDY    37  21  53 N13       30.30R WCI  28
$$

TXZ091>094-102>105-117-120-121-131>134-262300-
NORTH CENTRAL TEXAS

CITY           SKY/WX    TMP DP  RH WIND       PRES   REMARKS
SHRMAN/DENISON PTSUNNY   38  23  56 NE14G25   30.31S WCI  29
GAINESVILLE    CLOUDY    36  15  42 N14G20    30.33R WCI  27
BOWIE          CLOUDY    34  15  46 N12G18    30.32S WCI  25
BRIDGEPORT     CLOUDY    34  20  57 N10G16    30.34R WCI  26
DECATUR        PTSUNNY   34  16  46 N10G16    30.30R WCI  26
DENTON         CLOUDY    35  17  47 N16       30.31R WCI  25
MCKINNEY       CLOUDY    35  19  52 N17       30.31R WCI  25
GREENVILLE       N/A     36  23  60 N14       30.29R WCI  27
TERRELL        CLOUDY    39  22  50 N15       30.28R WCI  31
WAXAHACHIE     CLOUDY    36  24  64 N17G24    30.28S WCI  25
CLEBURNE       PTSUNNY   36  21  55 N22G30    30.29R WCI  24
GRANBURY       CLOUDY    36  23  58 N12       30.32R WCI  28
$$

TXZ083>090-098>101-113>116-127>130-139>142-154-155-262300-
WESTERN NORTH TEXAS

CITY           SKY/WX    TMP DP  RH WIND       PRES   REMARKS
WICHITA FALLS  CLOUDY    33  11  39 N18G25    30.35R WCI  22
WF-KICKAPOO    PTSUNNY   34  11  38 N16G24    30.36R WCI  24
VERNON         CLOUDY    34  -1  22 N18G24    30.37S WCI  23
ABILENE        CLOUDY    28  19  69 N14       30.30S WCI  17
BRECKENRIDGE   CLOUDY    32  16  52 NE13G20   30.32S WCI  22
GRAHAM         CLOUDY    31  18  57 N13G21    30.33R WCI  21
MINERAL WELLS  CLOUDY    33  19  56 N13       30.31R WCI  24
STEPHENVILLE   CLOUDY    32  22  66 N15       30.30S WCI  22
COMANCHE       CLOUDY    31  24  77 N16       30.28F WCI  19
BROWNWOOD      CLOUDY    32  21  64 N13G18    30.29R WCI  22
COLEMAN        CLOUDY    30  23  77 N18G24    30.27S WCI  18
BRADY          CLOUDY    30  23  74 N12       30.23R WCI  21
$$

TXZ143>147-156>162-174-175-262300-
CENTRAL TEXAS

CITY           SKY/WX    TMP DP  RH WIND       PRES   REMARKS
WACO           PTSUNNY   40  25  55 N16G24    30.27S WCI  31
WACO-MCGREGOR    N/A     39  28  65 N16       30.27S WCI  30
HILLSBORO      CLOUDY    38  23  55 N16G22    30.27R WCI  29
CORSICANA      CLOUDY    39  24  55 N15       30.26F WCI  31
MEXIA          PTSUNNY   38  26  61 MISG      30.24R
HEARNE         MOSUNNY   45  32  60 NW13G22   30.24R WCI  39
CAMERON        CLOUDY    43  32  64 N13       30.24S WCI  37
TEMPLE         CLOUDY    39  27  60 N15G24    30.24S WCI  31
KILLEEN        CLOUDY    36  28  75 N17G25    30.24R WCI  25
KILLEEN-SKYLRK CLOUDY    37  25  60 N14       30.23R WCI  29
FORT HOOD      CLOUDY    38  28  69 N14G21    30.24R WCI  29
GATESVILLE     CLOUDY    39  28  65 N15G21    30.27S WCI  31
HAMILTON       CLOUDY    35  24  66 N18       30.26S WCI  24
LAMPASAS       CLOUDY    35  28  74 NE12G17   30.24R WCI  27
$$

TXZ095>097-106>112-122>126-135>138-148>153-164>167-262300-
EAST TEXAS

CITY           SKY/WX    TMP DP  RH WIND       PRES   REMARKS
PARIS          MOSUNNY   37  19  48 N18       30.29S WCI  27
SULPHUR SPRNGS CLOUDY    38  24  57 N18       30.30R WCI  28
MOUNT PLEASANT SUNNY     42  26  53 N12       30.27S WCI  35
GILMER         CLOUDY    38  28  67 N6        30.26R WCI  34
MINEOLA        CLOUDY    39  25  56 N9G16     30.27S WCI  33
TYLER          MOSUNNY   42  26  53 N10       30.23F WCI  36
LONGVIEW       CLOUDY    37  28  70 N9G16     30.25R WCI  30
MARSHALL       CLOUDY    38  31  74 N9        30.29R WCI  32
ATHENS         CLOUDY    39  27  60 N9        30.25F WCI  33
PALESTINE      PTSUNNY   42  30  62 N13G18    30.25S WCI  35
HENDERSON      CLOUDY    36  29  76 N10       30.27R WCI  28
NACOGDOCHES    CLOUDY    37  28  70 N13       30.25R WCI  29
LUFKIN         CLOUDY    42  32  67 N13G20    30.22R WCI  35
$$

SUPPLEMENTAL OBSERVATIONS (CENTRAL)

CITY           SKY/WX    TMP DP  RH WIND       PRES   REMARKS
$$

SUPPLEMENTAL OBSERVATIONS (WEST)

CITY           SKY/WX    TMP DP  RH WIND       PRES   REMARKS
$$

SUPPLEMENTAL OBSERVATIONS (EAST)

CITY           SKY/WX    TMP DP  RH WIND       PRES   REMARKS
$$

SUPPLEMENTAL OBSERVATIONS ARE A COLLECTION OF AUTOMATED INSTRUMENTS
THAT ARE MAINTAINED BY A VARIETY OF FEDERAL AND STATE AGENCIES.
CERTAIN ELEMENTS...SUCH AS HUMIDITY VALUES AND SUSTAINED WIND
SPEEDS...MAY BE APPROXIMATED.



USA.gov is the U.S. government's official web portal to all federal, state and local government web resources and services.